owner,sensor,date,latitude,longitude,vertical_datum,sea_water_temperature,qcFlag 
TABS,ioos:station:wmo:42043:1,1995-04-03T00:00:00Z,28.9818,-94.9186,-2.0,19.01,11111222 
TABS,ioos:station:wmo:42043:1,1995-04-03T00:30:00Z,28.9818,-94.9186,-2.0,18.96,11111222 
TABS,ioos:station:wmo:42043:1,1995-04-03T01:00:00Z,28.9818,-94.9186,-2.0,18.9,11111222 
TABS,ioos:station:wmo:42043:1,1995-04-03T01:30:00Z,28.9818,-94.9186,-2.0,18.81,11111222 
TABS,ioos:station:wmo:42043:1,1995-04-03T02:00:00Z,28.9818,-94.9186,-2.0,18.79,11111222 
TABS,ioos:station:wmo:42043:1,1995-04-03T02:30:00Z,28.9818,-94.9186,-2.0,18.9,11111222 
TABS,ioos:station:wmo:42043:1,1995-04-03T03:00:00Z,28.9818,-94.9186,-2.0,18.76,11111222 
TABS,ioos:station:wmo:42043:1,1995-04-03T03:30:00Z,28.9818,-94.9186,-2.0,18.76,11111222 
TABS,ioos:station:wmo:42043:1,1995-04-03T04:00:00Z,28.9818,-94.9186,-2.0,18.68,11111222 
TABS,ioos:station:wmo:42043:1,1995-04-03T04:30:00Z,28.9818,-94.9186,-2.0,18.59,11111222 
TABS,ioos:station:wmo:42043:1,1995-04-03T05:00:00Z,28.9818,-94.9186,-2.0,18.59,11111222 
TABS,ioos:station:wmo:42043:1,1995-04-03T05:30:00Z,28.9818,-94.9186,-2.0,18.66,11111222 
TABS,ioos:station:wmo:42043:1,1995-04-03T06:00:00Z,28.9818,-94.9186,-2.0,18.72,11111222 
TABS,ioos:station:wmo:42043:1,1995-04-03T06:30:00Z,28.9818,-94.9186,-2.0,18.74,11111222 
TABS,ioos:station:wmo:42043:1,1995-04-03T07:00:00Z,28.9818,-94.9186,-2.0,18.83,11111222 
TABS,ioos:station:wmo:42043:1,1995-04-03T07:30:00Z,28.9818,-94.9186,-2.0,18.83,11111222 
TABS,ioos:station:wmo:42043:1,1995-04-03T08:00:00Z,28.9818,-94.9186,-2.0,18.81,11111222 
TABS,ioos:station:wmo:42043:1,1995-04-03T08:30:00Z,28.9818,-94.9186,-2.0,18.79,11111222 
TABS,ioos:station:wmo:42043:1,1995-04-03T09:00:00Z,28.9818,-94.9186,-2.0,18.76,11111222 
TABS,ioos:station:wmo:42043:1,1995-04-03T09:30:00Z,28.9818,-94.9186,-2.0,18.72,11111222 
TABS,ioos:station:wmo:42043:1,1995-04-03T10:00:00Z,28.9818,-94.9186,-2.0,18.72,11111222 
TABS,ioos:station:wmo:42043:1,1995-04-03T10:30:00Z,28.9818,-94.9186,-2.0,18.68,11111222 
TABS,ioos:station:wmo:42043:1,1995-04-03T11:00:00Z,28.9818,-94.9186,-2.0,18.66,11111222 
TABS,ioos:station:wmo:42043:1,1995-04-03T11:30:00Z,28.9818,-94.9186,-2.0,18.57,11111222 
TABS,ioos:station:wmo:42043:1,1995-04-03T12:00:00Z,28.9818,-94.9186,-2.0,18.57,11111222 
TABS,ioos:station:wmo:42043:1,1995-04-03T12:30:00Z,28.9818,-94.9186,-2.0,18.54,11111222 
TABS,ioos:station:wmo:42043:1,1995-04-03T13:00:00Z,28.9818,-94.9186,-2.0,18.48,11111222 
TABS,ioos:station:wmo:42043:1,1995-04-03T13:30:00Z,28.9818,-94.9186,-2.0,18.46,11111222 
TABS,ioos:station:wmo:42043:1,1995-04-03T14:00:00Z,28.9818,-94.9186,-2.0,18.39,11111222 
TABS,ioos:station:wmo:42043:1,1995-04-03T14:30:00Z,28.9818,-94.9186,-2.0,18.39,11111222 
TABS,ioos:station:wmo:42043:1,1995-04-03T15:00:00Z,28.9818,-94.9186,-2.0,18.32,11111222 
TABS,ioos:station:wmo:42043:1,1995-04-03T15:30:00Z,28.9818,-94.9186,-2.0,18.33,11111222 
TABS,ioos:station:wmo:42043:1,1995-04-03T16:00:00Z,28.9818,-94.9186,-2.0,18.39,11111222 
TABS,ioos:station:wmo:42043:1,1995-04-03T16:30:00Z,28.9818,-94.9186,-2.0,18.43,11111222 
TABS,ioos:station:wmo:42043:1,1995-04-03T17:00:00Z,28.9818,-94.9186,-2.0,18.48,11111222 
TABS,ioos:station:wmo:42043:1,1995-04-03T17:30:00Z,28.9818,-94.9186,-2.0,18.52,11111222 
TABS,ioos:station:wmo:42043:1,1995-04-03T18:00:00Z,28.9818,-94.9186,-2.0,18.61,11111222 
TABS,ioos:station:wmo:42043:1,1995-04-03T18:30:00Z,28.9818,-94.9186,-2.0,18.68,11111222 
TABS,ioos:station:wmo:42043:1,1995-04-03T19:00:00Z,28.9818,-94.9186,-2.0,18.74,11111222 
TABS,ioos:station:wmo:42043:1,1995-04-03T19:30:00Z,28.9818,-94.9186,-2.0,18.79,11111222 
TABS,ioos:station:wmo:42043:1,1995-04-03T20:00:00Z,28.9818,-94.9186,-2.0,18.85,11111222 
TABS,ioos:station:wmo:42043:1,1995-04-03T20:30:00Z,28.9818,-94.9186,-2.0,18.89,11111222 
TABS,ioos:station:wmo:42043:1,1995-04-03T21:00:00Z,28.9818,-94.9186,-2.0,18.94,11111222 
TABS,ioos:station:wmo:42043:1,1995-04-03T21:30:00Z,28.9818,-94.9186,-2.0,18.96,11111222 
TABS,ioos:station:wmo:42043:1,1995-04-03T22:00:00Z,28.9818,-94.9186,-2.0,19.0,11111222 
TABS,ioos:station:wmo:42043:1,1995-04-03T22:30:00Z,28.9818,-94.9186,-2.0,19.07,11111222 
TABS,ioos:station:wmo:42043:1,1995-04-03T23:00:00Z,28.9818,-94.9186,-2.0,19.05,11111222 
TABS,ioos:station:wmo:42043:1,1995-04-03T23:30:00Z,28.9818,-94.9186,-2.0,18.98,11111222 
TABS,ioos:station:wmo:42043:1,1995-04-04T00:00:00Z,28.9818,-94.9186,-2.0,19.01,11111222 
TABS,ioos:station:wmo:42043:1,1995-04-04T00:30:00Z,28.9818,-94.9186,-2.0,19.0,11111222 
TABS,ioos:station:wmo:42043:1,1995-04-04T01:00:00Z,28.9818,-94.9186,-2.0,18.96,11111222 
TABS,ioos:station:wmo:42043:1,1995-04-04T01:30:00Z,28.9818,-94.9186,-2.0,18.94,11111222 
TABS,ioos:station:wmo:42043:1,1995-04-04T02:00:00Z,28.9818,-94.9186,-2.0,18.92,11111222 
TABS,ioos:station:wmo:42043:1,1995-04-04T02:30:00Z,28.9818,-94.9186,-2.0,18.9,11111222 
TABS,ioos:station:wmo:42043:1,1995-04-04T03:00:00Z,28.9818,-94.9186,-2.0,18.87,11111222 
TABS,ioos:station:wmo:42043:1,1995-04-04T03:30:00Z,28.9818,-94.9186,-2.0,18.85,11111222 
TABS,ioos:station:wmo:42043:1,1995-04-04T04:00:00Z,28.9818,-94.9186,-2.0,18.83,11111222 
TABS,ioos:station:wmo:42043:1,1995-04-04T04:30:00Z,28.9818,-94.9186,-2.0,18.83,11111222 
TABS,ioos:station:wmo:42043:1,1995-04-04T05:00:00Z,28.9818,-94.9186,-2.0,18.83,11111222 
TABS,ioos:station:wmo:42043:1,1995-04-04T05:30:00Z,28.9818,-94.9186,-2.0,18.79,11111222 
TABS,ioos:station:wmo:42043:1,1995-04-04T06:00:00Z,28.9818,-94.9186,-2.0,18.81,11111222 
TABS,ioos:station:wmo:42043:1,1995-04-04T06:30:00Z,28.9818,-94.9186,-2.0,18.68,11111222 
TABS,ioos:station:wmo:42043:1,1995-04-04T07:00:00Z,28.9818,-94.9186,-2.0,18.63,11111222 
TABS,ioos:station:wmo:42043:1,1995-04-04T07:30:00Z,28.9818,-94.9186,-2.0,18.55,11111222 
TABS,ioos:station:wmo:42043:1,1995-04-04T08:00:00Z,28.9818,-94.9186,-2.0,18.48,11111222 
TABS,ioos:station:wmo:42043:1,1995-04-04T08:30:00Z,28.9818,-94.9186,-2.0,18.48,11111222 
TABS,ioos:station:wmo:42043:1,1995-04-04T09:00:00Z,28.9818,-94.9186,-2.0,18.48,11111222 
TABS,ioos:station:wmo:42043:1,1995-04-04T09:30:00Z,28.9818,-94.9186,-2.0,18.48,11111222 
TABS,ioos:station:wmo:42043:1,1995-04-04T10:00:00Z,28.9818,-94.9186,-2.0,18.52,11111222 
TABS,ioos:station:wmo:42043:1,1995-04-04T10:30:00Z,28.9818,-94.9186,-2.0,18.59,11111222 
TABS,ioos:station:wmo:42043:1,1995-04-04T11:00:00Z,28.9818,-94.9186,-2.0,18.59,11111222 
TABS,ioos:station:wmo:42043:1,1995-04-04T11:30:00Z,28.9818,-94.9186,-2.0,18.59,11111222 
TABS,ioos:station:wmo:42043:1,1995-04-04T12:00:00Z,28.9818,-94.9186,-2.0,18.61,11111222 
TABS,ioos:station:wmo:42043:1,1995-04-04T12:30:00Z,28.9818,-94.9186,-2.0,18.63,11111222 
TABS,ioos:station:wmo:42043:1,1995-04-04T13:00:00Z,28.9818,-94.9186,-2.0,18.59,11111222 
TABS,ioos:station:wmo:42043:1,1995-04-04T13:30:00Z,28.9818,-94.9186,-2.0,18.59,11111222 
TABS,ioos:station:wmo:42043:1,1995-04-04T14:00:00Z,28.9818,-94.9186,-2.0,18.61,11111222 
TABS,ioos:station:wmo:42043:1,1995-04-04T14:30:00Z,28.9818,-94.9186,-2.0,18.66,11111222 
TABS,ioos:station:wmo:42043:1,1995-04-04T15:00:00Z,28.9818,-94.9186,-2.0,18.65,11111222 
TABS,ioos:station:wmo:42043:1,1995-04-04T15:30:00Z,28.9818,-94.9186,-2.0,18.66,11111222 
TABS,ioos:station:wmo:42043:1,1995-04-04T16:00:00Z,28.9818,-94.9186,-2.0,18.66,11111222 
TABS,ioos:station:wmo:42043:1,1995-04-04T16:30:00Z,28.9818,-94.9186,-2.0,18.65,11111222 
TABS,ioos:station:wmo:42043:1,1995-04-04T17:00:00Z,28.9818,-94.9186,-2.0,18.63,11111222 
TABS,ioos:station:wmo:42043:1,1995-04-04T17:30:00Z,28.9818,-94.9186,-2.0,18.63,11111222 
TABS,ioos:station:wmo:42043:1,1995-04-04T18:00:00Z,28.9818,-94.9186,-2.0,18.65,11111222 
TABS,ioos:station:wmo:42043:1,1995-04-04T18:30:00Z,28.9818,-94.9186,-2.0,18.65,11111222 
TABS,ioos:station:wmo:42043:1,1995-04-04T19:00:00Z,28.9818,-94.9186,-2.0,18.63,11111222 
TABS,ioos:station:wmo:42043:1,1995-04-04T19:30:00Z,28.9818,-94.9186,-2.0,18.65,11111222 
TABS,ioos:station:wmo:42043:1,1995-04-04T20:00:00Z,28.9818,-94.9186,-2.0,18.65,11111222 
TABS,ioos:station:wmo:42043:1,1995-04-04T20:30:00Z,28.9818,-94.9186,-2.0,18.65,11111222 
TABS,ioos:station:wmo:42043:1,1995-04-04T21:00:00Z,28.9818,-94.9186,-2.0,18.65,11111222 
TABS,ioos:station:wmo:42043:1,1995-04-04T21:30:00Z,28.9818,-94.9186,-2.0,18.63,11111222 
TABS,ioos:station:wmo:42043:1,1995-04-04T22:00:00Z,28.9818,-94.9186,-2.0,18.65,11111222 
TABS,ioos:station:wmo:42043:1,1995-04-04T22:30:00Z,28.9818,-94.9186,-2.0,18.63,11111222 
TABS,ioos:station:wmo:42043:1,1995-04-04T23:00:00Z,28.9818,-94.9186,-2.0,18.63,11111222 
TABS,ioos:station:wmo:42043:1,1995-04-04T23:30:00Z,28.9818,-94.9186,-2.0,18.61,11111222 
TABS,ioos:station:wmo:42043:1,1995-04-05T00:00:00Z,28.9818,-94.9186,-2.0,18.61,11111222 
TABS,ioos:station:wmo:42043:1,1995-04-05T00:30:00Z,28.9818,-94.9186,-2.0,18.61,11111222 
TABS,ioos:station:wmo:42043:1,1995-04-05T01:00:00Z,28.9818,-94.9186,-2.0,18.63,11111222 
TABS,ioos:station:wmo:42043:1,1995-04-05T01:30:00Z,28.9818,-94.9186,-2.0,18.63,11111222 
TABS,ioos:station:wmo:42043:1,1995-04-05T02:00:00Z,28.9818,-94.9186,-2.0,18.63,11111222 
TABS,ioos:station:wmo:42043:1,1995-04-05T02:30:00Z,28.9818,-94.9186,-2.0,18.63,11111222 
TABS,ioos:station:wmo:42043:1,1995-04-05T03:00:00Z,28.9818,-94.9186,-2.0,18.61,11111222 
TABS,ioos:station:wmo:42043:1,1995-04-05T03:30:00Z,28.9818,-94.9186,-2.0,18.52,11111222 
TABS,ioos:station:wmo:42043:1,1995-04-05T04:00:00Z,28.9818,-94.9186,-2.0,18.57,11111222 
TABS,ioos:station:wmo:42043:1,1995-04-05T04:30:00Z,28.9818,-94.9186,-2.0,18.54,11111222 
TABS,ioos:station:wmo:42043:1,1995-04-05T05:00:00Z,28.9818,-94.9186,-2.0,18.55,11111222 
TABS,ioos:station:wmo:42043:1,1995-04-05T05:30:00Z,28.9818,-94.9186,-2.0,18.59,11111222 
TABS,ioos:station:wmo:42043:1,1995-04-05T06:00:00Z,28.9818,-94.9186,-2.0,18.59,11111222 
TABS,ioos:station:wmo:42043:1,1995-04-05T06:30:00Z,28.9818,-94.9186,-2.0,18.59,11111222 
TABS,ioos:station:wmo:42043:1,1995-04-05T07:00:00Z,28.9818,-94.9186,-2.0,18.57,11111222 
TABS,ioos:station:wmo:42043:1,1995-04-05T07:30:00Z,28.9818,-94.9186,-2.0,18.59,11111222 
TABS,ioos:station:wmo:42043:1,1995-04-05T08:00:00Z,28.9818,-94.9186,-2.0,18.59,11111222 
TABS,ioos:station:wmo:42043:1,1995-04-05T08:30:00Z,28.9818,-94.9186,-2.0,18.63,11111222 
TABS,ioos:station:wmo:42043:1,1995-04-05T09:00:00Z,28.9818,-94.9186,-2.0,18.54,11111222 
TABS,ioos:station:wmo:42043:1,1995-04-05T09:30:00Z,28.9818,-94.9186,-2.0,18.54,11111222 
TABS,ioos:station:wmo:42043:1,1995-04-05T10:00:00Z,28.9818,-94.9186,-2.0,18.46,11111222 
TABS,ioos:station:wmo:42043:1,1995-04-05T10:30:00Z,28.9818,-94.9186,-2.0,18.46,11111222 
TABS,ioos:station:wmo:42043:1,1995-04-05T11:00:00Z,28.9818,-94.9186,-2.0,18.46,11111222 
TABS,ioos:station:wmo:42043:1,1995-04-05T11:30:00Z,28.9818,-94.9186,-2.0,18.46,11111222 
TABS,ioos:station:wmo:42043:1,1995-04-05T12:00:00Z,28.9818,-94.9186,-2.0,18.48,11111222 
TABS,ioos:station:wmo:42043:1,1995-04-05T12:30:00Z,28.9818,-94.9186,-2.0,18.48,11111222 
TABS,ioos:station:wmo:42043:1,1995-04-05T13:00:00Z,28.9818,-94.9186,-2.0,18.5,11111222 
TABS,ioos:station:wmo:42043:1,1995-04-05T13:30:00Z,28.9818,-94.9186,-2.0,18.5,11111222 
TABS,ioos:station:wmo:42043:1,1995-04-05T14:00:00Z,28.9818,-94.9186,-2.0,18.5,11111222 
TABS,ioos:station:wmo:42043:1,1995-04-05T14:30:00Z,28.9818,-94.9186,-2.0,18.52,11111222 
TABS,ioos:station:wmo:42043:1,1995-04-05T15:00:00Z,28.9818,-94.9186,-2.0,18.54,11111222 
TABS,ioos:station:wmo:42043:1,1995-04-05T15:30:00Z,28.9818,-94.9186,-2.0,18.55,11111222 
TABS,ioos:station:wmo:42043:1,1995-04-05T16:00:00Z,28.9818,-94.9186,-2.0,18.59,11111222 
TABS,ioos:station:wmo:42043:1,1995-04-05T16:30:00Z,28.9818,-94.9186,-2.0,18.61,11111222 
TABS,ioos:station:wmo:42043:1,1995-04-05T17:00:00Z,28.9818,-94.9186,-2.0,18.63,11111222 
TABS,ioos:station:wmo:42043:1,1995-04-05T17:30:00Z,28.9818,-94.9186,-2.0,18.68,11111222 
TABS,ioos:station:wmo:42043:1,1995-04-05T18:00:00Z,28.9818,-94.9186,-2.0,18.76,11111222 
TABS,ioos:station:wmo:42043:1,1995-04-05T18:30:00Z,28.9818,-94.9186,-2.0,18.79,11111222 
TABS,ioos:station:wmo:42043:1,1995-04-05T19:00:00Z,28.9818,-94.9186,-2.0,18.83,11111222 
TABS,ioos:station:wmo:42043:1,1995-04-05T19:30:00Z,28.9818,-94.9186,-2.0,18.77,11111222 
TABS,ioos:station:wmo:42043:1,1995-04-05T20:00:00Z,28.9818,-94.9186,-2.0,18.72,11111222 
TABS,ioos:station:wmo:42043:1,1995-04-05T20:30:00Z,28.9818,-94.9186,-2.0,18.77,11111222 
TABS,ioos:station:wmo:42043:1,1995-04-05T21:00:00Z,28.9818,-94.9186,-2.0,18.74,11111222 
TABS,ioos:station:wmo:42043:1,1995-04-05T21:30:00Z,28.9818,-94.9186,-2.0,18.77,11111222 
TABS,ioos:station:wmo:42043:1,1995-04-05T22:00:00Z,28.9818,-94.9186,-2.0,18.68,11111222 
TABS,ioos:station:wmo:42043:1,1995-04-05T22:30:00Z,28.9818,-94.9186,-2.0,18.77,11111222 
TABS,ioos:station:wmo:42043:1,1995-04-05T23:00:00Z,28.9818,-94.9186,-2.0,18.9,11111222 
TABS,ioos:station:wmo:42043:1,1995-04-05T23:30:00Z,28.9818,-94.9186,-2.0,18.94,11111222 
TABS,ioos:station:wmo:42043:1,1995-04-06T00:00:00Z,28.9818,-94.9186,-2.0,19.01,11111222 
TABS,ioos:station:wmo:42043:1,1995-04-06T00:30:00Z,28.9818,-94.9186,-2.0,18.98,11111222 
TABS,ioos:station:wmo:42043:1,1995-04-06T01:00:00Z,28.9818,-94.9186,-2.0,18.89,11111222 
TABS,ioos:station:wmo:42043:1,1995-04-06T01:30:00Z,28.9818,-94.9186,-2.0,19.05,11111222 
TABS,ioos:station:wmo:42043:1,1995-04-06T02:00:00Z,28.9818,-94.9186,-2.0,19.05,11111222 
TABS,ioos:station:wmo:42043:1,1995-04-06T02:30:00Z,28.9818,-94.9186,-2.0,18.98,11111222 
TABS,ioos:station:wmo:42043:1,1995-04-06T03:00:00Z,28.9818,-94.9186,-2.0,19.01,11111222 
TABS,ioos:station:wmo:42043:1,1995-04-06T03:30:00Z,28.9818,-94.9186,-2.0,18.87,11111222 
TABS,ioos:station:wmo:42043:1,1995-04-06T04:00:00Z,28.9818,-94.9186,-2.0,18.79,11111222 
TABS,ioos:station:wmo:42043:1,1995-04-06T04:30:00Z,28.9818,-94.9186,-2.0,18.77,11111222 
TABS,ioos:station:wmo:42043:1,1995-04-06T05:00:00Z,28.9818,-94.9186,-2.0,18.87,11111222 
TABS,ioos:station:wmo:42043:1,1995-04-06T05:30:00Z,28.9818,-94.9186,-2.0,18.85,11111222 
TABS,ioos:station:wmo:42043:1,1995-04-06T06:00:00Z,28.9818,-94.9186,-2.0,18.83,11111222 
TABS,ioos:station:wmo:42043:1,1995-04-06T06:30:00Z,28.9818,-94.9186,-2.0,18.83,11111222 
TABS,ioos:station:wmo:42043:1,1995-04-06T07:00:00Z,28.9818,-94.9186,-2.0,18.87,11111222 
TABS,ioos:station:wmo:42043:1,1995-04-06T07:30:00Z,28.9818,-94.9186,-2.0,18.89,11111222 
TABS,ioos:station:wmo:42043:1,1995-04-06T08:00:00Z,28.9818,-94.9186,-2.0,18.83,11111222 
TABS,ioos:station:wmo:42043:1,1995-04-06T08:30:00Z,28.9818,-94.9186,-2.0,18.77,11111222 
TABS,ioos:station:wmo:42043:1,1995-04-06T09:00:00Z,28.9818,-94.9186,-2.0,18.83,11111222 
TABS,ioos:station:wmo:42043:1,1995-04-06T09:30:00Z,28.9818,-94.9186,-2.0,18.9,11111222 
TABS,ioos:station:wmo:42043:1,1995-04-06T10:00:00Z,28.9818,-94.9186,-2.0,18.94,11111222 
TABS,ioos:station:wmo:42043:1,1995-04-06T10:30:00Z,28.9818,-94.9186,-2.0,18.94,11111222 
TABS,ioos:station:wmo:42043:1,1995-04-06T11:00:00Z,28.9818,-94.9186,-2.0,18.96,11111222 
TABS,ioos:station:wmo:42043:1,1995-04-06T11:30:00Z,28.9818,-94.9186,-2.0,18.96,11111222 
TABS,ioos:station:wmo:42043:1,1995-04-06T12:00:00Z,28.9818,-94.9186,-2.0,18.81,11111222 
TABS,ioos:station:wmo:42043:1,1995-04-06T12:30:00Z,28.9818,-94.9186,-2.0,18.81,11111222 
TABS,ioos:station:wmo:42043:1,1995-04-06T13:00:00Z,28.9818,-94.9186,-2.0,18.87,11111222 
TABS,ioos:station:wmo:42043:1,1995-04-06T13:30:00Z,28.9818,-94.9186,-2.0,18.87,11111222 
TABS,ioos:station:wmo:42043:1,1995-04-06T14:00:00Z,28.9818,-94.9186,-2.0,18.83,11111222 
TABS,ioos:station:wmo:42043:1,1995-04-06T14:30:00Z,28.9818,-94.9186,-2.0,18.87,11111222 
TABS,ioos:station:wmo:42043:1,1995-04-06T15:00:00Z,28.9818,-94.9186,-2.0,18.87,11111222 
TABS,ioos:station:wmo:42043:1,1995-04-06T15:30:00Z,28.9818,-94.9186,-2.0,18.87,11111222 
TABS,ioos:station:wmo:42043:1,1995-04-06T16:00:00Z,28.9818,-94.9186,-2.0,18.9,11111222 
TABS,ioos:station:wmo:42043:1,1995-04-06T16:30:00Z,28.9818,-94.9186,-2.0,18.94,11111222 
TABS,ioos:station:wmo:42043:1,1995-04-06T17:00:00Z,28.9818,-94.9186,-2.0,19.0,11111222 
TABS,ioos:station:wmo:42043:1,1995-04-06T17:30:00Z,28.9818,-94.9186,-2.0,19.07,11111222 
TABS,ioos:station:wmo:42043:1,1995-04-06T18:00:00Z,28.9818,-94.9186,-2.0,19.14,11111222 
TABS,ioos:station:wmo:42043:1,1995-04-06T18:30:00Z,28.9818,-94.9186,-2.0,19.16,11111222 
TABS,ioos:station:wmo:42043:1,1995-04-06T19:00:00Z,28.9818,-94.9186,-2.0,19.2,11111222 
TABS,ioos:station:wmo:42043:1,1995-04-06T19:30:00Z,28.9818,-94.9186,-2.0,19.24,11111222 
TABS,ioos:station:wmo:42043:1,1995-04-06T20:00:00Z,28.9818,-94.9186,-2.0,19.42,11111222 
TABS,ioos:station:wmo:42043:1,1995-04-06T20:30:00Z,28.9818,-94.9186,-2.0,19.5,11111222 
TABS,ioos:station:wmo:42043:1,1995-04-06T21:00:00Z,28.9818,-94.9186,-2.0,19.51,11111222 
TABS,ioos:station:wmo:42043:1,1995-04-06T21:30:00Z,28.9818,-94.9186,-2.0,19.4,11111222 
TABS,ioos:station:wmo:42043:1,1995-04-06T22:00:00Z,28.9818,-94.9186,-2.0,19.38,11111222 
TABS,ioos:station:wmo:42043:1,1995-04-06T22:30:00Z,28.9818,-94.9186,-2.0,19.37,11111222 
TABS,ioos:station:wmo:42043:1,1995-04-06T23:00:00Z,28.9818,-94.9186,-2.0,19.37,11111222 
TABS,ioos:station:wmo:42043:1,1995-04-06T23:30:00Z,28.9818,-94.9186,-2.0,19.38,11111222 
TABS,ioos:station:wmo:42043:1,1995-04-07T00:00:00Z,28.9818,-94.9186,-2.0,19.44,11111222 
TABS,ioos:station:wmo:42043:1,1995-04-07T00:30:00Z,28.9818,-94.9186,-2.0,19.57,11111222 
TABS,ioos:station:wmo:42043:1,1995-04-07T01:00:00Z,28.9818,-94.9186,-2.0,19.68,11111222 
TABS,ioos:station:wmo:42043:1,1995-04-07T01:30:00Z,28.9818,-94.9186,-2.0,19.66,11111222 
TABS,ioos:station:wmo:42043:1,1995-04-07T02:00:00Z,28.9818,-94.9186,-2.0,19.66,11111222 
TABS,ioos:station:wmo:42043:1,1995-04-07T02:30:00Z,28.9818,-94.9186,-2.0,19.68,11111222 
TABS,ioos:station:wmo:42043:1,1995-04-07T03:00:00Z,28.9818,-94.9186,-2.0,19.77,11111222 
TABS,ioos:station:wmo:42043:1,1995-04-07T03:30:00Z,28.9818,-94.9186,-2.0,19.74,11111222 
TABS,ioos:station:wmo:42043:1,1995-04-07T04:00:00Z,28.9818,-94.9186,-2.0,19.74,11111222 
TABS,ioos:station:wmo:42043:1,1995-04-07T04:30:00Z,28.9818,-94.9186,-2.0,19.74,11111222 
TABS,ioos:station:wmo:42043:1,1995-04-07T05:00:00Z,28.9818,-94.9186,-2.0,19.81,11111222 
TABS,ioos:station:wmo:42043:1,1995-04-07T05:30:00Z,28.9818,-94.9186,-2.0,19.74,11111222 
TABS,ioos:station:wmo:42043:1,1995-04-07T06:00:00Z,28.9818,-94.9186,-2.0,19.64,11111222 
TABS,ioos:station:wmo:42043:1,1995-04-07T06:30:00Z,28.9818,-94.9186,-2.0,19.74,11111222 
TABS,ioos:station:wmo:42043:1,1995-04-07T07:00:00Z,28.9818,-94.9186,-2.0,19.79,11111222 
TABS,ioos:station:wmo:42043:1,1995-04-07T07:30:00Z,28.9818,-94.9186,-2.0,19.77,11111222 
TABS,ioos:station:wmo:42043:1,1995-04-07T08:00:00Z,28.9818,-94.9186,-2.0,19.85,11111222 
TABS,ioos:station:wmo:42043:1,1995-04-07T08:30:00Z,28.9818,-94.9186,-2.0,19.89,11111222 
TABS,ioos:station:wmo:42043:1,1995-04-07T09:00:00Z,28.9818,-94.9186,-2.0,19.7,11111222 
TABS,ioos:station:wmo:42043:1,1995-04-07T09:30:00Z,28.9818,-94.9186,-2.0,19.76,11111222 
TABS,ioos:station:wmo:42043:1,1995-04-07T10:00:00Z,28.9818,-94.9186,-2.0,19.64,11111222 
TABS,ioos:station:wmo:42043:1,1995-04-07T10:30:00Z,28.9818,-94.9186,-2.0,19.51,11111222 
TABS,ioos:station:wmo:42043:1,1995-04-07T11:00:00Z,28.9818,-94.9186,-2.0,19.46,11111222 
TABS,ioos:station:wmo:42043:1,1995-04-07T11:30:00Z,28.9818,-94.9186,-2.0,19.37,11111222 
TABS,ioos:station:wmo:42043:1,1995-04-07T12:00:00Z,28.9818,-94.9186,-2.0,19.51,11111222 
TABS,ioos:station:wmo:42043:1,1995-04-07T12:30:00Z,28.9818,-94.9186,-2.0,19.57,11111222 
TABS,ioos:station:wmo:42043:1,1995-04-07T13:00:00Z,28.9818,-94.9186,-2.0,19.63,11111222 
TABS,ioos:station:wmo:42043:1,1995-04-07T13:30:00Z,28.9818,-94.9186,-2.0,19.7,11111222 
TABS,ioos:station:wmo:42043:1,1995-04-07T14:00:00Z,28.9818,-94.9186,-2.0,19.61,11111222 
TABS,ioos:station:wmo:42043:1,1995-04-07T14:30:00Z,28.9818,-94.9186,-2.0,19.64,11111222 
TABS,ioos:station:wmo:42043:1,1995-04-07T15:00:00Z,28.9818,-94.9186,-2.0,19.7,11111222 
TABS,ioos:station:wmo:42043:1,1995-04-07T15:30:00Z,28.9818,-94.9186,-2.0,19.76,11111222 
TABS,ioos:station:wmo:42043:1,1995-04-07T16:00:00Z,28.9818,-94.9186,-2.0,19.68,11111222 
TABS,ioos:station:wmo:42043:1,1995-04-07T16:30:00Z,28.9818,-94.9186,-2.0,19.72,11111222 
TABS,ioos:station:wmo:42043:1,1995-04-07T17:00:00Z,28.9818,-94.9186,-2.0,19.7,11111222 
TABS,ioos:station:wmo:42043:1,1995-04-07T17:30:00Z,28.9818,-94.9186,-2.0,19.76,11111222 
TABS,ioos:station:wmo:42043:1,1995-04-07T18:00:00Z,28.9818,-94.9186,-2.0,19.83,11111222 
TABS,ioos:station:wmo:42043:1,1995-04-07T18:30:00Z,28.9818,-94.9186,-2.0,19.81,11111222 
TABS,ioos:station:wmo:42043:1,1995-04-07T19:00:00Z,28.9818,-94.9186,-2.0,19.98,11111222 
TABS,ioos:station:wmo:42043:1,1995-04-07T19:30:00Z,28.9818,-94.9186,-2.0,19.85,11111222 
TABS,ioos:station:wmo:42043:1,1995-04-07T20:00:00Z,28.9818,-94.9186,-2.0,19.9,11111222 
TABS,ioos:station:wmo:42043:1,1995-04-07T20:30:00Z,28.9818,-94.9186,-2.0,20.24,11111222 
TABS,ioos:station:wmo:42043:1,1995-04-07T21:00:00Z,28.9818,-94.9186,-2.0,20.33,11111222 
TABS,ioos:station:wmo:42043:1,1995-04-07T21:30:00Z,28.9818,-94.9186,-2.0,20.54,11111222 
TABS,ioos:station:wmo:42043:1,1995-04-07T22:00:00Z,28.9818,-94.9186,-2.0,20.84,11111222 
TABS,ioos:station:wmo:42043:1,1995-04-07T22:30:00Z,28.9818,-94.9186,-2.0,20.77,11111222 
TABS,ioos:station:wmo:42043:1,1995-04-07T23:00:00Z,28.9818,-94.9186,-2.0,20.48,11111222 
TABS,ioos:station:wmo:42043:1,1995-04-07T23:30:00Z,28.9818,-94.9186,-2.0,20.52,11111222 
TABS,ioos:station:wmo:42043:1,1995-04-08T00:00:00Z,28.9818,-94.9186,-2.0,20.33,11111222 
TABS,ioos:station:wmo:42043:1,1995-04-08T00:30:00Z,28.9818,-94.9186,-2.0,20.52,11111222 
TABS,ioos:station:wmo:42043:1,1995-04-08T01:00:00Z,28.9818,-94.9186,-2.0,20.28,11111222 
TABS,ioos:station:wmo:42043:1,1995-04-08T01:30:00Z,28.9818,-94.9186,-2.0,20.26,11111222 
TABS,ioos:station:wmo:42043:1,1995-04-08T02:00:00Z,28.9818,-94.9186,-2.0,20.47,11111222 
TABS,ioos:station:wmo:42043:1,1995-04-08T02:30:00Z,28.9818,-94.9186,-2.0,20.5,11111222 
TABS,ioos:station:wmo:42043:1,1995-04-08T03:00:00Z,28.9818,-94.9186,-2.0,20.45,11111222 
TABS,ioos:station:wmo:42043:1,1995-04-08T03:30:00Z,28.9818,-94.9186,-2.0,20.45,11111222 
TABS,ioos:station:wmo:42043:1,1995-04-08T04:00:00Z,28.9818,-94.9186,-2.0,20.37,11111222 
TABS,ioos:station:wmo:42043:1,1995-04-08T04:30:00Z,28.9818,-94.9186,-2.0,20.41,11111222 
TABS,ioos:station:wmo:42043:1,1995-04-08T05:00:00Z,28.9818,-94.9186,-2.0,20.2,11111222 
TABS,ioos:station:wmo:42043:1,1995-04-08T05:30:00Z,28.9818,-94.9186,-2.0,20.15,11111222 
TABS,ioos:station:wmo:42043:1,1995-04-08T06:00:00Z,28.9818,-94.9186,-2.0,19.85,11111222 
TABS,ioos:station:wmo:42043:1,1995-04-08T06:30:00Z,28.9818,-94.9186,-2.0,19.79,11111222 
TABS,ioos:station:wmo:42043:1,1995-04-08T07:00:00Z,28.9818,-94.9186,-2.0,19.89,11111222 
TABS,ioos:station:wmo:42043:1,1995-04-08T07:30:00Z,28.9818,-94.9186,-2.0,19.89,11111222 
TABS,ioos:station:wmo:42043:1,1995-04-08T08:00:00Z,28.9818,-94.9186,-2.0,19.94,11111222 
TABS,ioos:station:wmo:42043:1,1995-04-08T08:30:00Z,28.9818,-94.9186,-2.0,19.94,11111222 
TABS,ioos:station:wmo:42043:1,1995-04-08T09:00:00Z,28.9818,-94.9186,-2.0,19.92,11111222 
TABS,ioos:station:wmo:42043:1,1995-04-08T09:30:00Z,28.9818,-94.9186,-2.0,19.92,11111222 
TABS,ioos:station:wmo:42043:1,1995-04-08T10:00:00Z,28.9818,-94.9186,-2.0,19.9,11111222 
TABS,ioos:station:wmo:42043:1,1995-04-08T10:30:00Z,28.9818,-94.9186,-2.0,19.89,11111222 
TABS,ioos:station:wmo:42043:1,1995-04-08T11:00:00Z,28.9818,-94.9186,-2.0,19.89,11111222 
TABS,ioos:station:wmo:42043:1,1995-04-08T11:30:00Z,28.9818,-94.9186,-2.0,19.87,11111222 
TABS,ioos:station:wmo:42043:1,1995-04-08T12:00:00Z,28.9818,-94.9186,-2.0,19.87,11111222 
TABS,ioos:station:wmo:42043:1,1995-04-08T12:30:00Z,28.9818,-94.9186,-2.0,19.89,11111222 
TABS,ioos:station:wmo:42043:1,1995-04-08T13:00:00Z,28.9818,-94.9186,-2.0,19.85,11111222 
TABS,ioos:station:wmo:42043:1,1995-04-08T13:30:00Z,28.9818,-94.9186,-2.0,19.81,11111222 
TABS,ioos:station:wmo:42043:1,1995-04-08T14:00:00Z,28.9818,-94.9186,-2.0,19.87,11111222 